Radiation Dose at Monitoring Post of Fukushima Daini Nuclear Power Station
Date,Time,MP-1(microSv/h),MP-2(microSv/h),MP-3(microSv/h),MP-4(microSv/h),MP-5(microSv/h),MP-6(microSv/h),MP-7(microSv/h),Wind Direction,Wind Velocity(m/s),Rain
2021/01/23,00:00,0.179,0.159,0.259,0.245,0.239,0.142,0.086,north-northwest,4.3,No
2021/01/23,00:10,0.178,0.161,0.258,0.245,0.240,0.142,0.086,north-northwest,4.5,No
2021/01/23,00:20,0.179,0.160,0.258,0.244,0.240,0.141,0.086,north-northwest,4.4,No
2021/01/23,00:30,0.179,0.160,0.258,0.244,0.240,0.141,0.085,north-northwest,5.4,No
2021/01/23,00:40,0.178,0.160,0.258,0.246,0.241,0.142,0.085,north-northwest,5.4,No
2021/01/23,00:50,0.178,0.160,0.257,0.245,0.238,0.142,0.086,north-northwest,5.7,No
2021/01/23,01:00,0.179,0.160,0.260,0.245,0.239,0.142,0.086,north-northwest,6.2,No
2021/01/23,01:10,0.178,0.160,0.259,0.244,0.240,0.142,0.086,north-northwest,5.9,No
2021/01/23,01:20,0.178,0.160,0.258,0.245,0.240,0.141,0.086,north,5.9,No
2021/01/23,01:30,0.178,0.161,0.258,0.245,0.239,0.142,0.086,north-northwest,5.3,No
2021/01/23,01:40,0.178,0.160,0.259,0.247,0.240,0.142,0.086,north-northwest,5.1,No
2021/01/23,01:50,0.179,0.160,0.259,0.245,0.240,0.142,0.085,north-northwest,6.3,No
2021/01/23,02:00,0.179,0.161,0.259,0.244,0.240,0.142,0.086,north-northwest,7.6,No
2021/01/23,02:10,0.179,0.160,0.259,0.245,0.239,0.142,0.086,north-northwest,7.9,No
2021/01/23,02:20,0.180,0.160,0.258,0.246,0.240,0.142,0.085,north-northwest,7.7,No
2021/01/23,02:30,0.179,0.160,0.258,0.244,0.238,0.142,0.086,north-northwest,8.4,No
2021/01/23,02:40,0.178,0.160,0.259,0.245,0.240,0.142,0.086,north-northwest,7.1,No
2021/01/23,02:50,0.180,0.161,0.259,0.245,0.240,0.141,0.086,north-northwest,7.4,No
2021/01/23,03:00,0.178,0.159,0.259,0.245,0.240,0.142,0.085,north-northwest,7.3,No
2021/01/23,03:10,0.178,0.160,0.258,0.244,0.240,0.141,0.086,north-northwest,7.4,No
2021/01/23,03:20,0.179,0.160,0.259,0.245,0.240,0.142,0.086,north-northwest,7.1,No
2021/01/23,03:30,0.179,0.161,0.259,0.245,0.241,0.142,0.085,north-northwest,7.0,No
2021/01/23,03:40,0.179,0.160,0.258,0.245,0.240,0.142,0.086,north-northwest,7.7,No
2021/01/23,03:50,0.178,0.161,0.258,0.243,0.239,0.141,0.086,north-northwest,7.3,No
2021/01/23,04:00,0.179,0.160,0.260,0.245,0.240,0.142,0.086,north-northwest,7.3,No
2021/01/23,04:10,0.178,0.160,0.260,0.245,0.240,0.141,0.087,north-northwest,7.1,No
2021/01/23,04:20,0.180,0.161,0.259,0.244,0.241,0.142,0.086,north-northwest,7.3,No
2021/01/23,04:30,0.179,0.161,0.259,0.245,0.240,0.142,0.086,north-northwest,7.4,No
2021/01/23,04:40,0.179,0.160,0.258,0.243,0.240,0.143,0.085,north-northwest,7.0,No
2021/01/23,04:50,0.178,0.160,0.258,0.245,0.240,0.142,0.086,north-northwest,7.9,No
2021/01/23,05:00,0.179,0.161,0.260,0.245,0.241,0.141,0.086,north-northwest,7.3,No
2021/01/23,05:10,0.180,0.161,0.259,0.245,0.239,0.142,0.086,north-northwest,7.0,No
2021/01/23,05:20,0.179,0.160,0.259,0.245,0.239,0.141,0.086,north-northwest,7.6,No
2021/01/23,05:30,0.178,0.161,0.259,0.245,0.240,0.141,0.085,north-northwest,7.7,No
2021/01/23,05:40,0.179,0.161,0.260,0.245,0.239,0.141,0.086,north-northwest,7.1,No
2021/01/23,05:50,0.179,0.160,0.258,0.244,0.240,0.141,0.086,north-northwest,6.7,No
2021/01/23,06:00,0.179,0.160,0.259,0.245,0.239,0.141,0.086,north-northwest,6.7,No
2021/01/23,06:10,0.179,0.161,0.258,0.244,0.240,0.141,0.085,north-northwest,5.8,No
2021/01/23,06:20,0.179,0.160,0.259,0.244,0.239,0.142,0.086,north-northwest,6.4,No
2021/01/23,06:30,0.178,0.160,0.259,0.246,0.239,0.142,0.086,north-northwest,6.7,No
2021/01/23,06:40,0.179,0.160,0.258,0.243,0.240,0.142,0.085,north-northwest,6.5,No
2021/01/23,06:50,0.178,0.160,0.260,0.245,0.240,0.142,0.085,northwest,5.9,No
2021/01/23,07:00,0.179,0.160,0.259,0.245,0.240,0.141,0.086,northwest,6.1,No
2021/01/23,07:10,0.179,0.161,0.258,0.245,0.239,0.142,0.086,north-northwest,6.1,No
2021/01/23,07:20,0.179,0.160,0.258,0.245,0.240,0.142,0.087,northwest,5.8,No
2021/01/23,07:30,0.179,0.161,0.260,0.245,0.240,0.141,0.087,northwest,6.0,No
2021/01/23,07:40,0.178,0.160,0.259,0.245,0.239,0.142,0.086,north-northwest,7.4,No
2021/01/23,07:50,0.178,0.160,0.257,0.245,0.239,0.142,0.085,north-northwest,6.6,No
2021/01/23,08:00,0.178,0.159,0.259,0.245,0.240,0.142,0.086,north-northwest,7.9,No
2021/01/23,08:10,0.178,0.160,0.258,0.244,0.241,0.142,0.085,north-northwest,7.0,No
2021/01/23,08:20,0.178,0.160,0.259,0.244,0.240,0.142,0.086,northwest,6.0,No
2021/01/23,08:30,0.178,0.161,0.259,0.245,0.240,0.142,0.085,north-northwest,6.0,No
2021/01/23,08:40,0.180,0.160,0.259,0.244,0.241,0.141,0.086,north-northwest,6.6,No
2021/01/23,08:50,0.178,0.160,0.258,0.245,0.240,0.142,0.086,north-northwest,6.5,No
2021/01/23,09:00,0.178,0.160,0.257,0.245,0.240,0.142,0.085,north-northwest,6.6,No
2021/01/23,09:10,0.178,0.161,0.259,0.244,0.239,0.141,0.086,north-northwest,6.0,No
2021/01/23,09:20,0.179,0.161,0.258,0.245,0.240,0.141,0.085,north-northwest,6.3,No
2021/01/23,09:30,0.179,0.160,0.258,0.245,0.241,0.141,0.086,north-northwest,6.2,No
2021/01/23,09:40,0.178,0.161,0.260,0.245,0.239,0.142,0.085,northwest,4.7,No
2021/01/23,09:50,0.179,0.161,0.258,0.244,0.240,0.142,0.085,northwest,4.8,No
2021/01/23,10:00,0.178,0.160,0.258,0.245,0.240,0.142,0.085,northwest,4.6,No
2021/01/23,10:10,0.179,0.159,0.258,0.245,0.239,0.142,0.086,north-northwest,4.4,No
2021/01/23,10:20,0.177,0.161,0.258,0.244,0.240,0.141,0.086,north-northwest,6.0,No
2021/01/23,10:30,0.179,0.160,0.259,0.246,0.239,0.141,0.087,north-northwest,5.2,No
2021/01/23,10:40,0.179,0.160,0.260,0.246,0.239,0.141,0.086,north-northwest,5.5,No
2021/01/23,10:50,0.179,0.161,0.259,0.245,0.240,0.142,0.086,north-northwest,6.5,No
2021/01/23,11:00,0.178,0.159,0.258,0.245,0.240,0.142,0.086,northwest,5.2,No
2021/01/23,11:10,0.178,0.161,0.259,0.245,0.239,0.143,0.085,north-northwest,3.6,No
2021/01/23,11:20,0.178,0.161,0.260,0.245,0.238,0.142,0.085,northwest,4.3,No
2021/01/23,11:30,0.180,0.160,0.258,0.245,0.240,0.142,0.085,north-northwest,5.0,No
2021/01/23,11:40,0.178,0.160,0.259,0.244,0.239,0.142,0.087,north-northwest,5.0,No
2021/01/23,11:50,0.178,0.160,0.258,0.245,0.239,0.142,0.086,north-northwest,5.2,No
2021/01/23,12:00,0.179,0.160,0.258,0.246,0.238,0.142,0.085,north-northwest,5.0,No
2021/01/23,12:10,0.179,0.161,0.260,0.244,0.240,0.141,0.086,northwest,4.2,No
2021/01/23,12:20,0.179,0.161,0.259,0.245,0.240,0.142,0.086,north-northwest,4.2,No
2021/01/23,12:30,0.178,0.159,0.259,0.245,0.240,0.142,0.086,northwest,3.3,No
2021/01/23,12:40,0.178,0.161,0.259,0.246,0.239,0.142,0.086,west-northwest,3.0,No
2021/01/23,12:50,0.178,0.160,0.259,0.245,0.240,0.142,0.087,northwest,3.0,No
2021/01/23,13:00,0.180,0.160,0.259,0.245,0.239,0.142,0.086,northwest,4.0,No
2021/01/23,13:10,0.178,0.160,0.259,0.244,0.240,0.142,0.085,northwest,3.7,No
2021/01/23,13:20,0.179,0.161,0.259,0.245,0.239,0.142,0.086,northwest,3.7,No
2021/01/23,13:30,0.179,0.161,0.259,0.245,0.241,0.141,0.085,northwest,3.1,No
2021/01/23,13:40,0.178,0.160,0.258,0.244,0.240,0.142,0.085,northwest,3.5,No
2021/01/23,13:50,0.178,0.160,0.260,0.245,0.240,0.141,0.086,northwest,3.4,No
2021/01/23,14:00,0.178,0.161,0.258,0.245,0.240,0.141,0.086,northwest,3.5,No
2021/01/23,14:10,0.179,0.161,0.258,0.245,0.240,0.142,0.086,northwest,4.0,No
2021/01/23,14:20,0.179,0.161,0.260,0.244,0.239,0.141,0.086,west-northwest,4.1,No
2021/01/23,14:30,0.177,0.161,0.259,0.245,0.240,0.141,0.086,west-northwest,3.2,No
2021/01/23,14:40,0.178,0.161,0.259,0.244,0.240,0.142,0.086,west-northwest,3.9,No
2021/01/23,14:50,0.179,0.160,0.260,0.244,0.239,0.141,0.086,northwest,3.9,No
2021/01/23,15:00,0.179,0.161,0.258,0.245,0.238,0.142,0.086,northwest,4.0,No
2021/01/23,15:10,0.178,0.160,0.260,0.246,0.240,0.142,0.086,northwest,3.1,No
2021/01/23,15:20,0.179,0.160,0.259,0.245,0.240,0.141,0.085,northwest,3.9,No
2021/01/23,15:30,0.178,0.161,0.261,0.244,0.240,0.142,0.085,northwest,5.3,No
2021/01/23,15:40,0.179,0.161,0.259,0.245,0.240,0.141,0.086,west-northwest,4.3,No
2021/01/23,15:50,0.178,0.161,0.259,0.245,0.239,0.142,0.086,northwest,4.2,No
2021/01/23,16:00,0.179,0.160,0.260,0.245,0.239,0.141,0.086,west-northwest,3.1,No
2021/01/23,16:10,0.179,0.160,0.260,0.245,0.240,0.141,0.086,west-northwest,3.5,No
2021/01/23,16:20,0.180,0.161,0.258,0.246,0.240,0.142,0.085,west-northwest,3.6,No
2021/01/23,16:30,0.178,0.161,0.258,0.246,0.241,0.141,0.086,north-northwest,4.8,No
2021/01/23,16:40,0.178,0.160,0.259,0.246,0.241,0.142,0.086,north-northwest,4.8,No
2021/01/23,16:50,0.178,0.160,0.260,0.246,0.241,0.142,0.086,north-northwest,5.6,No
2021/01/23,17:00,0.178,0.161,0.260,0.245,0.240,0.142,0.086,north-northwest,6.3,No
2021/01/23,17:10,0.180,0.160,0.258,0.245,0.239,0.142,0.085,north-northwest,7.0,No
2021/01/23,17:20,0.178,0.160,0.260,0.246,0.239,0.142,0.086,north-northwest,6.1,No
2021/01/23,17:30,0.179,0.160,0.260,0.245,0.240,0.142,0.086,north-northwest,5.4,No
2021/01/23,17:40,0.179,0.160,0.260,0.244,0.239,0.142,0.086,north-northwest,5.4,No
2021/01/23,17:50,0.179,0.161,0.260,0.246,0.239,0.142,0.086,north,4.3,No
2021/01/23,18:00,0.178,0.161,0.259,0.245,0.241,0.142,0.085,northeast,6.1,No
2021/01/23,18:10,0.179,0.161,0.259,0.245,0.241,0.141,0.086,northeast,7.6,No
2021/01/23,18:20,0.179,0.161,0.259,0.245,0.239,0.143,0.085,northeast,6.4,No
2021/01/23,18:30,0.178,0.160,0.258,0.244,0.240,0.141,0.084,northeast,7.4,No
2021/01/23,18:40,0.178,0.159,0.259,0.244,0.239,0.142,0.085,northeast,7.4,No
2021/01/23,18:50,0.178,0.161,0.258,0.244,0.240,0.142,0.085,northeast,7.9,No
2021/01/23,19:00,0.179,0.160,0.259,0.244,0.239,0.141,0.086,northeast,7.6,No
2021/01/23,19:10,0.179,0.159,0.259,0.246,0.241,0.142,0.086,north-northeast,7.0,No
2021/01/23,19:20,0.178,0.161,0.257,0.246,0.240,0.142,0.086,northeast,7.9,No
2021/01/23,19:30,0.179,0.161,0.259,0.244,0.241,0.142,0.085,northeast,8.1,No
2021/01/23,19:40,0.178,0.159,0.259,0.245,0.239,0.142,0.086,north-northeast,8.2,No
2021/01/23,19:50,0.179,0.160,0.259,0.247,0.240,0.141,0.086,northeast,6.5,No
2021/01/23,20:00,0.178,0.161,0.259,0.245,0.240,0.141,0.085,north-northeast,6.8,No
2021/01/23,20:10,0.178,0.160,0.259,0.245,0.240,0.142,0.085,north-northeast,9.5,No
2021/01/23,20:20,0.178,0.160,0.258,0.245,0.238,0.142,0.085,north-northeast,7.4,No
2021/01/23,20:30,0.180,0.159,0.260,0.246,0.240,0.142,0.086,north-northeast,8.4,Yes
2021/01/23,20:40,0.178,0.160,0.260,0.245,0.240,0.142,0.085,northeast,7.4,Yes
2021/01/23,20:50,0.180,0.162,0.259,0.247,0.241,0.142,0.087,north-northeast,7.6,Yes
2021/01/23,21:00,0.181,0.163,0.260,0.246,0.242,0.143,0.087,north-northeast,8.2,Yes
2021/01/23,21:10,0.180,0.164,0.261,0.248,0.242,0.145,0.090,north-northeast,7.3,Yes
2021/01/23,21:20,0.183,0.165,0.263,0.250,0.243,0.146,0.091,north-northeast,7.7,Yes
2021/01/23,21:30,0.183,0.166,0.265,0.250,0.244,0.147,0.090,north-northeast,8.8,Yes
2021/01/23,21:40,0.185,0.167,0.264,0.249,0.245,0.148,0.092,north-northeast,7.6,Yes
2021/01/23,21:50,0.183,0.165,0.263,0.250,0.245,0.148,0.092,northeast,7.9,Yes
2021/01/23,22:00,0.183,0.166,0.263,0.250,0.245,0.148,0.092,northeast,6.6,Yes
2021/01/23,22:10,0.184,0.167,0.263,0.250,0.244,0.147,0.093,northeast,6.2,Yes
2021/01/23,22:20,0.183,0.166,0.264,0.248,0.245,0.148,0.092,north-northeast,7.3,Yes
2021/01/23,22:30,0.184,0.167,0.265,0.250,0.244,0.147,0.093,north-northeast,7.4,Yes
2021/01/23,22:40,0.184,0.167,0.264,0.250,0.245,0.147,0.092,north-northeast,7.6,Yes
2021/01/23,22:50,0.183,0.167,0.264,0.250,0.244,0.147,0.092,north-northeast,7.0,Yes
2021/01/23,23:00,0.184,0.167,0.264,0.250,0.244,0.147,0.092,north-northeast,7.9,Yes
2021/01/23,23:10,0.183,0.167,0.263,0.248,0.243,0.148,0.092,north-northeast,8.8,Yes
2021/01/23,23:20,0.183,0.167,0.263,0.249,0.243,0.147,0.091,northeast,7.0,Yes
2021/01/23,23:30,0.184,0.166,0.263,0.249,0.244,0.147,0.092,north-northeast,8.4,Yes
2021/01/23,23:40,0.183,0.166,0.261,0.249,0.244,0.148,0.092,north-northeast,7.9,Yes
2021/01/23,23:50,0.182,0.165,0.262,0.247,0.243,0.147,0.091,northeast,8.8,Yes
